Location: *
(46.1833°N, 22.7667°E)
Time: 11:47:27
(UTC+00:00)

NOSS 3-4 (C) - Pass Details

Date: 17 September 2019
Orbit: 913 x 1299 km, 63.4° (Epoch: 21 September)

Event Time Altitude Azimuth Distance (km) Brightness Sun altitude
Rises 18:45:39 0° 319° (NW) 3,851 7.8 -22.0°
Reaches altitude 10° 18:48:14 10° 316° (NW) 2,946 7.0 -22.4°
Maximum altitude 18:55:09 61° 238° (WSW) 1,307 4.2 -23.5°
Enters shadow 18:59:06 29° 169° (S) 2,034 4.8 -24.1°
